Tracking 20040 objects as of 19-Nov-2019
Live streaming from Space Station
objects crossing your sky now

IUS R/B(1)

Track IUS R/B(1) now!


NORAD ID: 19549
Int'l Code: 1988-091C
Perigee: 299.0 km
Apogee: 29,969.8 km
Inclination: 26.6 °
Period: 523.1 minutes
Semi major axis: 21505 km
RCS: 12.0384 m2 (large)
Launch date: September 29, 1988
Source: United States (US)
Launch site: AIR FORCE EASTERN TEST RANGE (AFETR)

Note: This is a ROCKET BODY
aabbcc
Your satellite tracking list
Your tracking list is empty




NASA's NSSDC Master Catalog

Two Line Element Set (TLE):
1 19549U 88091C   19322.47617378  .00000595  00000-0  34716-3 0  9997
2 19549  26.6218 325.6103 6898469  82.2279 345.0257  2.75284738288803
Source of the keplerian elements: AFSPC